Regional Weather Roundup
Issued by NWS

Home | Current Version | Previous Version | Graphics & Text | Print | Product List | Glossary On
Versions: 1 2 3 4 5 6 7 8 9 10 11 12 13 14 15 16 17 18 19 20 21 22 23 24 25 26 27 28 29 30 31 32 33 34 35 36 37 38 39 40 41 42 43 44 45 46 47 48 49 50
000
ASUS43 KDMX 010907
RWRIA

WEATHER ROUNDUP FOR IOWA
NATIONAL WEATHER SERVICE DES MOINES IA
400 AM CDT WED JUL 01 2015

NOTE: "FAIR" INDICATES FEW OR NO CLOUDS BELOW 12,000 FEET WITH NO
SIGNIFICANT WEATHER AND/OR OBSTRUCTIONS TO VISIBILITY.

* - THESE STATIONS ARE NOT NWS STATIONS...THUS NOT UNDER NWS
QUALITY CONTROL.  THEY ALSO DO NOT REPORT WEATHER SUCH
AS PRECIPITATION OR FOG.

IAZ001>003-012>014-020>022-031>034-043>046-011000-
   NORTHWEST IOWA

CITY           SKY/WX    TMP DP  RH WIND       PRES   REMARKS
CARROLL *      PTCLDY    66  64  94 E10       29.88F
CHEROKEE *     PTCLDY    63  63 100 NE5       29.90S
DENISON *      PTCLDY    64  64 100 E5        29.86S FOG
LE MARS *      PTCLDY    66  64  94 NE7       29.88F
ORANGE CITY *  LGT RAIN  63  61  94 E6        29.89F
SHELDON *      LGT RAIN  63  63 100 SE7       29.89F
SIOUX CITY     MOCLDY    66  63  90 E6        29.86F FOG
SPENCER        PTCLDY    65  60  84 SE8       29.91F
STORM LAKE *   CLEAR     64  63  94 E12       29.90F
$$

IAZ055>058-069>071-079>083-090>094-011000-
   SOUTHWEST IOWA

CITY           SKY/WX    TMP DP  RH WIND       PRES   REMARKS
ATLANTIC *     CLEAR     64  64 100 CALM      29.87S FOG
AUDUBON *        N/A     64  63  94 CALM      29.89F FOG
CLARINDA *     CLOUDY    68  68 100 SE6       29.89S
COUNCIL BLFS * CLEAR     66  66 100 SE7       29.86S
CRESTON *      CLEAR     66  64  94 CALM      29.89R FOG
HARLAN  *      PTCLDY    64  64 100 CALM      29.90S
LAMONI         CLOUDY    68  67  96 S9        29.89R FOG
RED OAK *      MOCLDY    66  66 100 CALM      29.87S
SHENANDOAH *   PTCLDY    68  68 100 E8G14     29.85F
$$

IAZ047>049-059>061-072>074-084-011000-
   CENTRAL IOWA

CITY           SKY/WX    TMP DP  RH WIND       PRES   REMARKS
AMES           CLOUDY    65  61  87 NE3       29.90F
ANKENY *       CLOUDY    64  64 100 N3        29.89F
CHARITON *     PTCLDY    68  66  94 NE5       29.87F FOG
DES MOINES     PTCLDY    69  62  78 E8        29.88F
GRINNELL*      MOCLDY    64  61  88 NE7       29.91S
KNOXVILLE *    PTCLDY    66  64  94 E7        29.87F
MARSHALLTOWN   CLOUDY    64  60  87 E8        29.91F
PELLA *        PTCLDY    66  64  94 E5        29.89F
PERRY *          N/A     66  63  88 E8        29.89F
$$

IAZ004>006-015-016-023>025-035-036-011000-
   NORTH CENTRAL IOWA

CITY           SKY/WX    TMP DP  RH WIND       PRES   REMARKS
ALGONA *       CLOUDY    63  57  82 SE7       29.94S
CLARION *      MOCLDY    63  59  88 E7        29.93S
ESTHERVILLE    CLEAR     59  57  93 SE6       29.93F
FORT DODGE *   MOCLDY    63  59  88 E5        29.92F
MASON CITY     CLEAR     58  54  86 E6        29.96F
FOREST CITY *  CLEAR     59  54  82 E5        29.95R
IOWA FALLS *   CLOUDY    63  59  88 E6        29.93F
$$

IAZ007>011-017>019-026>030-037>042-050>054-066-011000-
   NORTHEAST IOWA

CITY           SKY/WX    TMP DP  RH WIND       PRES   REMARKS
CEDAR RAPIDS   CLOUDY    63  59  87 NE10      29.91F
CHARLES CITY * MOCLDY    57  57 100 E6        29.95F
CLINTON *      CLOUDY    61  57  88 N7        29.94F
DECORAH *        N/A    N/A N/A N/A MISG        N/A
DUBUQUE        MOCLDY    57  53  86 NE7       29.94S
MONTICELLO *   CLEAR     59 N/A N/A CALM      29.93F
OELWEIN *      CLEAR     55  55 100 NE6       29.95S
WATERLOO       PTCLDY    58  56  93 E7        29.93S
$$

IAZ064-065-067-068-078-011000-
   EAST CENTRAL IOWA

CITY           SKY/WX    TMP DP  RH WIND       PRES   REMARKS
DAVENPORT      CLOUDY    63  60  90 N6        29.91F
IOWA CITY      CLOUDY    65  58  78 NE9       29.91F
MT. PLEASANT * PTCLDY    68  64  88 NE7       29.88F FOG
MUSCATINE *    MOCLDY    66  61  82 NE6       29.90F
QUAD CITIES    CLOUDY    67  60  78 NE3       29.90S
$$

IAZ062-063-075>077-085>089-095>099-011000-
   SOUTHEAST IOWA

CITY           SKY/WX    TMP DP  RH WIND       PRES   REMARKS
BURLINGTON     MOCLDY    68  64  87 NE7       29.87F
FAIRFIELD *    MOCLDY    66  63  88 NE8       29.88F
FORT MADISON * CLEAR     66  66 100 NE3       29.88F
KEOKUK *       CLEAR     68  68 100 CALM      29.85F FOG
OSKALOOSA *      N/A     64  63  94 E5        29.89F
CENTERVILLE *  CLEAR     66  66 100 SW3       29.90F
OTTUMWA        MOCLDY    66  63  90 NE8       29.87F
WASHINGTON *   MOCLDY    64  64 100 NE7       29.90F
$$

ABBREVIATIONS USED IN REMARKS
   TC - TEMPERATURES IN CELSIUS
  WCI - WIND CHILL INDEX
   HX - HEAT INDEX
  VSB - VISIBILITY
$$




USA.gov is the U.S. government's official web portal to all federal, state and local government web resources and services.